Weather History for La Paz, B. C. S., Mexico

Change the Weather History Date:

Saturday, February 22, 2014

  Actual Average Record
Temperature  
Mean Temperature 74 °F -  
Max Temperature 88 °F 80 °F - ()
Min Temperature 59 °F 54 °F - ()
Cooling Degree Days 8    
Growing Degree Days 24 (Base 50)    
Moisture  
Dew Point 53 °F    
Average Humidity 58    
Maximum Humidity 94    
Minimum Humidity 18    
Precipitation  
Precipitation 0.00 in - - ()
Sea Level Pressure  
Sea Level Pressure 29.93 in    
Wind  
Wind Speed 6 mph ()    
Max Wind Speed 12 mph    
Max Gust Speed -    
Visibility 8.9 miles    
Events Fog    
T = Trace of Precipitation, MM = Missing Value Source: Averaged Metar Reports

Daily Weather History Graph

Daily Weather History Graph

Search for Another Location

Airport:

Trip Planner

Search our weather history database for the weather conditions in past years. The results will help you decide how hot, cold, wet, or windy it might be!

Date:

Astronomy

Feb. 22, 2014 Rise Set
Actual Time 6:49 AM MST 6:20 PM MST
Civil Twilight 6:26 AM MST 6:43 PM MST
Nautical Twilight 5:59 AM MST 7:09 PM MST
Astronomical Twilight 5:33 AM MST 7:36 PM MST
Moon 12:33 AM MST (2/22) 11:50 AM MST (2/22)
Length of Visible Light 12h 17m
Length of Day
11h 31m
Waning Gibbous, 49% of the Moon is Illuminated
Feb 22
Waning Gibbous
Mar 1
New
Mar 8
First Quarter
Mar 16
Full
Mar 23
Last Quarter

Hourly Weather History & Observations

Time (MST) Temp. Dew Point Humidity Pressure Visibility Wind Dir Wind Speed Gust Speed Precip Events Conditions
1:50 AM 65 °F 60 °F 80% 29.91 in 2 mi SSE 4.5 mph - -  
4:50 AM 62 °F 57 °F 79% 29.90 in 2 mi SE 2.2 mph - -  
5:40 AM 57.2 °F 55.4 °F 94% 29.92 in 10.0 mi SSE 6.9 mph - N/A   Partly Cloudy
6:24 AM 59.0 °F 57.2 °F 94% 29.93 in 0.5 mi SSE 10.4 mph - N/A Fog Fog
7:40 AM 59.0 °F 57.2 °F 94% 29.97 in 2.0 mi SSE 8.1 mph - N/A   Mist
7:50 AM 62 °F 58 °F 84% 29.96 in 12 mi South 6.7 mph - -  
8:00 AM 60.8 °F 59.0 °F 94% 29.97 in 6.0 mi South 11.5 mph - N/A   Partly Cloudy
8:40 AM 64.4 °F 59.0 °F 83% 29.98 in 7.0 mi SSW 8.1 mph - N/A   Partly Cloudy
9:40 AM 66.2 °F 57.2 °F 73% 29.98 in 7.0 mi SSW 6.9 mph - N/A   Partly Cloudy
10:40 AM 75 °F 58 °F 45% 29.99 in 19 mi South 4.5 mph - -   Clear
10:40 AM 71.6 °F 55.4 °F 57% 29.98 in 10.0 mi SSW 6.9 mph - N/A   Partly Cloudy
11:40 AM 77.0 °F 51.8 °F 41% 29.96 in 10.0 mi South 4.6 mph - N/A   Partly Cloudy
12:40 PM 80.6 °F 48.2 °F 32% 29.93 in 10.0 mi South 6.9 mph - N/A   Partly Cloudy
1:40 PM 86 °F 52 °F 21% 29.91 in 19 mi SE 6.7 mph - -   Clear
1:40 PM 82.4 °F 42.8 °F 25% 29.90 in 10.0 mi SW 8.1 mph - N/A   Partly Cloudy
2:49 PM 82.4 °F 42.8 °F 25% 29.88 in 10.0 mi WSW 9.2 mph - N/A   Scattered Clouds
3:49 PM 82.4 °F 39.2 °F 21% 29.87 in 10.0 mi SW 11.5 mph - N/A   Scattered Clouds
4:45 PM 85 °F 49 °F 18% 29.85 in 19 mi SSW 6.7 mph - -   Clear
4:48 PM 80.6 °F 41.0 °F 24% 29.88 in 10.0 mi SSW 9.2 mph - N/A   Scattered Clouds
5:49 PM 78.8 °F 44.6 °F 30% 29.90 in 10.0 mi WSW 9.2 mph - N/A   Scattered Clouds
6:48 PM 71.6 °F 51.8 °F 50% 29.91 in 10.0 mi SW 6.9 mph - N/A   Scattered Clouds
7:45 PM 71 °F 57 °F 52% 29.89 in 2 mi South 6.7 mph - -   Clear
7:49 PM 68.0 °F 55.4 °F 64% 29.94 in 10.0 mi SSW 6.9 mph - N/A   Scattered Clouds
8:40 PM 66.2 °F 55.4 °F 68% 29.96 in 10.0 mi Calm Calm - N/A   Partly Cloudy
9:47 PM 64.4 °F 55.4 °F 73% 29.98 in 10.0 mi South 9.2 mph - N/A   Partly Cloudy
10:42 PM 64.4 °F 55.4 °F 73% 29.99 in 10.0 mi South 6.9 mph - N/A   Partly Cloudy
10:50 PM 66 °F 58 °F 69% 29.97 in 2 mi South 6.7 mph - -   Mostly Cloudy